Location: Unspecified
(29.9680°N, 0.0000°E)
Time: 19:52:24
(UTC+00:00)

A-11 Canister half - All Passes

Search period start: 18 June 2019 00:00
Search period end: 28 June 2019 00:00
Orbit: 1525 x 1684 km, 47.3° (Epoch: 18 June)

Date Brightness Start Highest point End Pass type
(mag) Time Alt. Az. Time Alt. Az. Time Alt. Az.
18 Jun - 02:09:10 10° SSE 02:14:08 15° SE 02:19:02 10° E visible
18 Jun - 04:08:38 10° SW 04:18:06 71° SE 04:27:22 10° NE visible
18 Jun - 06:14:49 10° W 06:23:34 42° NNW 06:32:15 10° NE daylight
18 Jun - 08:23:27 10° NW 08:30:56 26° N 08:38:28 10° NE daylight
18 Jun - 10:29:47 10° NW 10:38:24 40° NNE 10:47:09 10° E daylight
18 Jun - 12:34:38 10° NW 12:43:58 76° SW 12:53:36 10° SE daylight
18 Jun - 14:42:27 10° W 14:48:02 17° SW 14:53:43 10° SSW daylight
19 Jun - 01:48:11 10° SSE 01:52:34 14° ESE 01:56:53 10° E visible
19 Jun - 03:47:03 10° SW 03:56:30 67° SE 04:05:44 10° NE visible
19 Jun - 05:53:02 10° W 06:01:53 43° NNW 06:10:38 10° NE daylight
19 Jun - 08:01:41 10° WNW 08:09:12 26° N 08:16:43 10° NE daylight
19 Jun - 10:08:09 10° NW 10:16:42 39° NNE 10:25:21 10° E daylight
19 Jun - 12:13:01 10° NW 12:22:22 80° SW 12:31:59 10° SE daylight
19 Jun - 14:20:28 10° W 14:26:27 19° SW 14:32:34 10° SSW daylight
20 Jun - 01:27:21 10° SE 01:31:00 13° ESE 01:34:37 10° E visible
20 Jun - 03:25:28 10° SSW 03:34:54 64° SE 03:44:05 10° NE visible
20 Jun - 05:31:16 10° W 05:40:12 45° NNW 05:49:01 10° NE daylight
20 Jun - 07:39:55 10° WNW 07:47:27 26° N 07:54:58 10° NE daylight
20 Jun - 09:46:32 10° NW 09:55:00 37° NNE 10:03:33 10° E daylight
20 Jun - 11:51:23 10° NW 12:00:45 83° SW 12:10:21 10° SE daylight
20 Jun - 13:58:33 10° W 14:04:53 20° SW 14:11:21 10° SSW daylight
21 Jun - 01:06:45 10° SE 01:09:26 11° ESE 01:12:06 10° ESE visible
21 Jun - 03:03:54 10° SSW 03:13:18 60° SE 03:22:26 10° ENE visible
21 Jun - 05:09:30 10° W 05:18:31 47° NNW 05:27:24 10° NE daylight
21 Jun - 07:18:08 10° WNW 07:25:42 27° N 07:33:15 10° NE daylight
21 Jun - 09:24:55 10° NW 09:33:18 36° NNE 09:41:45 10° E daylight
21 Jun - 11:29:46 10° NW 11:39:08 87° SW 11:48:44 10° SE daylight
21 Jun - 13:36:40 10° W 13:43:19 22° SW 13:50:06 10° S daylight
22 Jun - 00:47:00 10° SE 00:47:52 10° ESE 00:48:42 10° ESE visible
22 Jun - 02:42:21 10° SSW 02:51:42 57° SE 03:00:47 10° ENE visible
22 Jun - 04:47:44 10° WSW 04:56:50 49° NNW 05:05:48 10° NE daylight
22 Jun - 06:56:21 10° WNW 07:03:57 27° N 07:11:31 10° NE daylight
22 Jun - 09:03:16 10° NW 09:11:35 35° NNE 09:19:57 10° E daylight
22 Jun - 11:08:09 10° NW 11:17:31 89° NE 11:27:05 10° SE daylight
22 Jun - 13:14:48 10° WNW 13:21:44 24° SW 13:28:49 10° S daylight
23 Jun - 02:20:49 10° SSW 02:30:06 54° SE 02:39:07 10° ENE visible
23 Jun - 04:25:59 10° WSW 04:35:10 51° NNW 04:44:11 10° NE visible
23 Jun - 06:34:34 10° WNW 06:42:12 27° N 06:49:48 10° NE daylight
23 Jun - 08:41:37 10° NW 08:49:52 34° NNE 08:58:10 10° E daylight
23 Jun - 10:46:32 10° NW 10:55:54 85° NE 11:05:26 10° SE daylight
23 Jun - 12:52:59 10° WNW 13:00:10 25° SW 13:07:30 10° S daylight
24 Jun - 01:59:16 10° SSW 02:08:30 51° SE 02:17:28 10° ENE visible
24 Jun - 04:04:13 10° WSW 04:13:30 53° NNW 04:22:35 10° NE visible
24 Jun - 06:12:46 10° WNW 06:20:27 27° N 06:28:06 10° NE daylight
24 Jun - 08:19:58 10° NW 08:28:10 33° NNE 08:36:22 10° E daylight
24 Jun - 10:24:56 10° NW 10:34:16 81° NE 10:43:47 10° SE daylight
24 Jun - 12:31:11 10° WNW 12:38:35 27° SW 12:46:10 10° S daylight
25 Jun - 01:37:45 10° SSW 01:46:54 48° SE 01:55:47 10° ENE visible
25 Jun - 03:42:29 10° WSW 03:51:50 56° NNW 04:00:59 10° NE visible
25 Jun - 05:50:57 10° WNW 05:58:42 28° N 06:06:24 10° NE daylight
25 Jun - 07:58:20 10° NW 08:06:26 32° NNE 08:14:33 10° ENE daylight
25 Jun - 10:03:19 10° NW 10:12:38 78° NE 10:22:07 10° SE daylight
25 Jun - 12:09:23 10° WNW 12:17:01 29° SW 12:24:48 10° S daylight
26 Jun - 01:16:15 10° SSW 01:25:18 45° SE 01:34:06 10° ENE visible
26 Jun - 03:20:44 10° WSW 03:30:10 58° NNW 03:39:23 10° NE visible
26 Jun - 05:29:09 10° WNW 05:36:58 28° N 05:44:42 10° NE daylight
26 Jun - 07:36:40 10° NW 07:44:43 31° NNE 07:52:45 10° ENE daylight
26 Jun - 09:41:42 10° NW 09:51:00 74° NE 10:00:26 10° ESE daylight
26 Jun - 11:47:38 10° WNW 11:55:26 31° SW 12:03:25 10° S daylight
27 Jun - 00:54:45 10° SSW 01:03:43 42° SE 01:12:25 10° ENE visible
27 Jun - 02:59:00 10° WSW 03:08:30 61° NW 03:17:47 10° NE visible
27 Jun - 05:07:20 10° WNW 05:15:14 29° NNW 05:23:02 10° NE daylight
27 Jun - 07:15:00 10° NW 07:22:59 31° NNE 07:30:57 10° ENE daylight
27 Jun - 09:20:05 10° NW 09:29:23 71° NE 09:38:46 10° ESE daylight
27 Jun - 11:25:53 10° WNW 11:33:52 33° SW 11:42:00 10° S daylight
